Language: 


Des rapports , des résumés tant et plus, au choix de chacun....


Données statistiques de la station
Quotidien Rapport Nil La, TWC- Unités:  Anglais    Métrique   les deux
« Précédent Jour
Suivant Jour »
Quotidien Hebdomadaire Mensuel Annuel Actuel
  Haut: Bas: Moyen:
Température: TemperatureC °F -1.4 °F -0.6 °F
Pt de rosée: DewpointC °F -3.0 °F -2.6 °F
Humidité: Humidity % 88 % 87 %
Vitesse du vent: WindSpeedKMH mph 3.2 mph 9.4 mph
Rafales: WindSpeedGustKMH mph - -
Vent:- - NNE
Pression: PressurehPa in 1020.9 in -
Précipitation: 0.0 in    
Historical Graphs
 
 
Données statistiques pour Nil La, TWC-
Heure Température Point de rosée Pression Vent Vitesse du vent Refales Humidité Pluie (taux horaire)
TemperatureC °F DewpointC °F PressurehPa in Calm     Humidity % HourlyPrecipMM in
00:04 0.4 °F -1.0 °F 1022.9 in NE 12.6 mph 13.0 mph 88 % 0.0 in
00:09 0.4 °F -1.0 °F 1022.9 in NE 12.2 mph 12.6 mph 88 % 0.0 in
00:14 0.4 °F -1.0 °F 1022.9 in NE 9.0 mph 12.6 mph 88 % 0.0 in
00:19 0.3 °F -1.0 °F 1022.9 in NNE 13.0 mph 13.0 mph 88 % 0.0 in
00:24 0.3 °F -1.0 °F 1022.9 in NE 9.7 mph 13.0 mph 88 % 0.0 in
00:29 0.2 °F -1.0 °F 1022.9 in NNE 10.5 mph 14.0 mph 88 % 0.0 in
00:34 0.1 °F -1.0 °F 1022.9 in NNE 11.6 mph 14.0 mph 88 % 0.0 in
00:39 0.1 °F -1.0 °F 1022.9 in NNE 11.6 mph 11.6 mph 88 % 0.0 in
00:44 0.0 °F -3.0 °F 1022.9 in NNE 9.3 mph 13.0 mph 88 % 0.0 in
00:49 -0.1 °F -3.0 °F 1022.9 in NE 9.0 mph 13.0 mph 88 % 0.0 in
00:54 -0.1 °F -3.0 °F 1022.9 in NNE 10.1 mph 12.6 mph 88 % 0.0 in
00:59 -0.2 °F -3.0 °F 1022.9 in NNE 10.5 mph 13.7 mph 88 % 0.0 in
01:04 -0.2 °F -3.0 °F 1022.9 in NE 6.9 mph 13.7 mph 88 % 0.0 in
01:09 -0.3 °F -3.0 °F 1022.9 in NNE 12.6 mph 13.0 mph 89 % 0.0 in
01:14 -0.3 °F -3.0 °F 1022.9 in NNE 3.2 mph 14.8 mph 89 % 0.0 in
01:19 -0.3 °F -3.0 °F 1022.9 in NE 13.7 mph 14.8 mph 89 % 0.0 in
01:24 -0.3 °F -3.0 °F 1022.9 in NNE 9.3 mph 13.7 mph 89 % 0.0 in
01:29 -0.4 °F -3.0 °F 1022.9 in NNE 12.6 mph 13.7 mph 89 % 0.0 in
01:34 -0.4 °F -3.0 °F 1022.9 in NE 9.7 mph 13.7 mph 89 % 0.0 in
01:40 -0.4 °F -3.0 °F 1022.9 in NNE 13.0 mph 13.7 mph 89 % 0.0 in
01:45 -0.4 °F -3.0 °F 1021.9 in NE 9.3 mph 13.0 mph 89 % 0.0 in
01:50 -0.5 °F -3.0 °F 1021.9 in NE 6.9 mph 13.0 mph 89 % 0.0 in
01:55 -0.5 °F -3.0 °F 1021.9 in NNE 9.0 mph 11.9 mph 89 % 0.0 in
02:00 -0.5 °F -3.0 °F 1021.9 in NNE 9.0 mph 9.0 mph 89 % 0.0 in
02:05 -0.5 °F -3.0 °F 1021.9 in NNE 10.5 mph 10.5 mph 89 % 0.0 in
02:10 -0.6 °F -3.0 °F 1021.9 in NNE 8.7 mph 10.5 mph 89 % 0.0 in
02:15 -0.6 °F -3.0 °F 1021.9 in NNE 8.7 mph 10.5 mph 89 % 0.0 in
02:20 -0.7 °F -3.0 °F 1021.9 in NE 9.7 mph 9.7 mph 89 % 0.0 in
02:25 -0.7 °F -3.0 °F 1021.9 in NNE 11.9 mph 11.9 mph 89 % 0.0 in
02:30 -0.8 °F -3.0 °F 1021.9 in NE 6.9 mph 11.9 mph 89 % 0.0 in
02:35 -0.8 °F -3.0 °F 1021.9 in NE 6.9 mph 11.9 mph 89 % 0.0 in
02:40 -0.8 °F -3.0 °F 1021.9 in NE 6.9 mph 6.9 mph 89 % 0.0 in
02:45 -0.8 °F -3.0 °F 1021.9 in NE 6.9 mph 6.9 mph 89 % 0.0 in
02:50 -0.8 °F -3.0 °F 1021.9 in NE 6.9 mph 6.9 mph 89 % 0.0 in
02:55 -0.9 °F -3.0 °F 1021.9 in NNE 9.7 mph 9.7 mph 89 % 0.0 in
03:00 -0.9 °F -3.0 °F 1021.9 in NNE 9.7 mph 9.7 mph 89 % 0.0 in
03:05 -1.0 °F -3.0 °F 1021.9 in NNE 9.7 mph 9.7 mph 89 % 0.0 in
03:10 -1.0 °F -3.0 °F 1021.9 in NE 8.7 mph 10.1 mph 89 % 0.0 in
03:15 -1.0 °F -3.0 °F 1020.9 in NNE 9.7 mph 10.1 mph 89 % 0.0 in
03:20 -1.0 °F -3.0 °F 1020.9 in NE 9.7 mph 9.7 mph 89 % 0.0 in
03:25 -1.0 °F -3.0 °F 1020.9 in ENE 10.5 mph 12.2 mph 89 % 0.0 in
03:30 -1.0 °F -3.0 °F 1020.9 in NNE 10.1 mph 12.2 mph 89 % 0.0 in
03:35 -1.1 °F -3.0 °F 1020.9 in NNE 9.3 mph 11.6 mph 89 % 0.0 in
03:40 -1.1 °F -3.0 °F 1020.9 in NNE 9.3 mph 10.1 mph 89 % 0.0 in
03:45 -1.2 °F -3.0 °F 1020.9 in NNE 9.3 mph 9.3 mph 89 % 0.0 in
03:50 -1.2 °F -3.0 °F 1020.9 in NE 9.7 mph 9.7 mph 89 % 0.0 in
03:55 -1.3 °F -3.0 °F 1020.9 in NE 9.7 mph 9.7 mph 89 % 0.0 in
04:00 -1.3 °F -3.0 °F 1020.9 in NE 9.7 mph 9.7 mph 89 % 0.0 in
04:05 -1.3 °F -3.0 °F 1020.9 in NE 6.9 mph 9.7 mph 89 % 0.0 in
04:10 -1.3 °F -3.0 °F 1020.9 in NNE 7.9 mph 7.9 mph 89 % 0.0 in
04:15 -1.4 °F -3.0 °F 1020.9 in NNE 9.7 mph 9.7 mph 89 % 0.0 in
Le Gheer Warneton
Courtoisie de Weather Underground - 1.25 mb

Mise a jour : 22/02/2018 04:18:11
Généré par Cumulus 1.9.4 (1099)